Tracking 30743 objects as of 22-Jun-2025
HD Live streaming from Space Station
objects crossing your sky now

STARLINK-31112

Track STARLINK-31112 now!
10-day predictions
STARLINK-31112 is classified as:


NORAD ID: 58680
Int'l Code: 2023-211P
Perigee: 489.4 km
Apogee: 491.0 km
Inclination: 43.0 °
Period: 94.3 minutes
Semi major axis: 6861 km
RCS: Unknown
Launch date: December 29, 2023
Source: United States (US)
Launch site: AIR FORCE EASTERN TEST RANGE (AFETR)
Your satellite tracking list
Your tracking list is empty




NASA's NSSDC Master Catalog

Two Line Element Set (TLE):
1 58680U 23211P   25172.26345152  .00000662  00000-0  33586-4 0  9994
2 58680  43.0032 121.6031 0001171 257.9240 102.1480 15.27581787 83664
Source of the keplerian elements: AFSPC